[[{"header":{"parameterUnit":"m.s-1","parameterCategory":1,"la1":30.2991,"la2":30.254,"lo1":-89.0895,"lo2":-89.0444,"dy":0.0017,"dx":0.0017,"nx":28,"ny":28,"refTime":"2025-12-24T03:00:00:Z","depth":0,"parameterNumber":2,"parameterNumberName":"U-component_of_WINDS"},"data":[0,0,0,0,0,0,0,0,0,0,0,0,0,0,0,0,0,0,0,0,0,0,0,0,0,0,0,0,0,0,0,0,0,0,0,0,0,0,0,0,0,0,0,0,0,0,0,0,0,0,0,0,0,0,0,0,0,0,-0.4857,-0.4856,0,-0.4797,-0.4796,-0.4796,-0.4746,-0.4746,-0.4745,-0.4745,-0.4683,-0.4682,-0.4681,0,0,0,0,0,0,0,0,0,0,0,0,0,-0.4929,-0.4928,-0.4857,-0.4856,-0.4856,-0.4797,-0.4796,-0.4796,-0.4746,-0.4746,-0.4745,-0.4744,-0.4684,-0.4682,-0.4681,0,0,0,0,0,0,0,0,0,0,0,0,0,-0.4886,-0.4928,-0.4857,-0.4824,-0.482,-0.4797,-0.4796,-0.4795,-0.4746,-0.4746,-0.4745,-0.4744,-0.4684,-0.4683,-0.4681,-0.4686,0,0,-0.4676,-0.4675,0,0,0,0,0,0,0,0,-0.4889,-0.4884,-0.483,-0.4826,-0.4822,-0.4778,-0.4799,-0.4759,-0.4747,-0.4775,-0.4745,-0.4744,-0.4716,-0.4711,-0.4702,-0.4683,-0.468,-0.4675,-0.4674,-0.4674,-0.4673,0,0,0,0,0,0,0,-0.4892,-0.4886,-0.4833,-0.4829,-0.4824,-0.4812,-0.4805,-0.4791,-0.475,-0.4772,-0.4768,-0.4762,-0.4713,-0.4704,-0.47,-0.468,-0.4676,-0.4674,-0.4673,-0.4672,-0.4662,-0.4663,0,0,0,0,0,0,-0.49,-0.4889,-0.4835,-0.4831,-0.4854,-0.4811,-0.4804,-0.4793,-0.475,-0.4743,-0.4763,-0.476,-0.4707,-0.4702,-0.4698,-0.4701,-0.4674,-0.4672,-0.4671,-0.4662,-0.4662,-0.4663,0,0,0,0,0,0,-0.4902,-0.4896,-0.4838,-0.4859,-0.4851,-0.4811,-0.48,-0.4792,-0.4782,-0.4743,-0.4736,-0.476,-0.4706,-0.47,-0.4689,-0.4698,-0.4671,-0.467,-0.4661,-0.4662,-0.4663,-0.4708,0,0,0,0,0,0,-0.4904,-0.4897,-0.4898,-0.486,-0.485,-0.483,-0.48,-0.4792,-0.478,-0.4775,-0.4739,-0.4732,-0.4705,-0.4692,-0.4688,-0.4695,-0.4668,-0.466,-0.4661,-0.4663,-0.4705,-0.471,-0.4715,0,0,0,0,0,-0.4907,-0.4913,-0.4898,-0.4892,-0.4851,-0.4831,-0.4825,-0.4794,-0.4781,-0.4782,-0.4756,-0.4733,-0.4698,-0.4691,-0.4686,-0.4693,-0.4659,-0.4661,-0.4662,-0.4703,-0.4709,-0.4715,0,0,0,0,0,0,-0.4954,-0.4907,-0.4891,-0.4885,-0.4862,-0.4823,-0.4823,-0.4802,-0.4783,-0.478,-0.4742,-0.4734,-0.4727,-0.4709,-0.4703,-0.4696,-0.4675,-0.4676,-0.4708,-0.4714,-0.4718,-0.4723,-0.4667,0,0,0,0,0,-0.4963,-0.4951,-0.4911,-0.491,-0.4899,-0.4864,-0.4854,-0.4832,-0.4807,-0.4797,-0.4771,-0.4748,-0.4731,-0.4721,-0.4704,-0.4702,-0.4694,-0.4705,-0.4709,-0.4713,-0.4715,-0.4712,-0.4717,-0.4669,-0.4669,-0.4669,0,0,-0.4983,-0.4956,-0.4951,-0.4919,-0.4899,-0.4887,-0.4856,-0.4845,-0.4835,-0.4795,-0.4784,-0.4764,-0.4735,-0.4729,-0.4725,-0.4714,-0.4726,-0.4716,-0.4719,-0.4718,-0.4715,-0.4719,-0.4723,-0.467,-0.467,-0.467,0,0,-0.5013,-0.4992,-0.4988,-0.4969,-0.4939,-0.4915,-0.4914,-0.4878,-0.4863,-0.4851,-0.4821,-0.4809,-0.4782,-0.4763,-0.475,-0.4773,-0.4751,-0.4769,-0.4793,-0.4792,-0.4795,-0.4799,-0.4807,-0.4811,-0.477,-0.477,-0.477,0,-0.5042,-0.5023,-0.4989,-0.498,-0.4967,-0.493,-0.4926,-0.4909,-0.4875,-0.4867,-0.4855,-0.482,-0.4798,-0.4787,-0.4793,-0.4783,-0.4781,-0.4773,-0.4798,-0.48,-0.4803,-0.4811,-0.4814,-0.4773,-0.4772,-0.4772,-0.4772,0,-0.506,-0.5047,-0.5048,-0.5016,-0.5003,-0.4997,-0.4962,-0.4953,-0.4932,-0.491,-0.4898,-0.487,-0.4847,-0.4843,-0.4822,-0.4829,-0.4823,-0.4805,-0.4783,-0.481,-0.4817,-0.482,-0.4776,-0.4775,-0.4774,-0.4774,0,0,-0.5118,-0.5068,-0.5069,-0.5054,-0.5018,-0.5008,-0.5,-0.4977,-0.497,-0.4948,-0.4941,-0.4918,-0.4901,-0.4886,-0.4863,-0.4862,-0.4883,-0.4844,-0.4842,-0.4852,-0.4889,-0.4903,-0.4907,-0.4868,-0.4868,-0.4868,-0.4891,0,-0.5143,-0.5126,-0.5096,-0.5089,-0.5077,-0.5042,-0.5035,-0.5013,-0.4992,-0.4978,-0.4955,-0.494,-0.4918,-0.4909,-0.4906,-0.4881,-0.489,-0.4879,-0.4861,-0.486,-0.4869,-0.4911,-0.4926,-0.4949,-0.4894,-0.4894,-0.4895,0,-0.5169,-0.515,-0.5142,-0.5107,-0.5101,-0.5095,-0.5072,-0.506,-0.5034,-0.5018,-0.5002,-0.4977,-0.4967,-0.4947,-0.4932,-0.4926,-0.4917,-0.4903,-0.4903,-0.4901,-0.488,-0.491,-0.4955,-0.4959,-0.4898,-0.4898,-0.4898,0,-0.5213,-0.5185,-0.5176,-0.5165,-0.5124,-0.5121,-0.5104,-0.5077,-0.5065,-0.5045,-0.5037,-0.5016,-0.5005,-0.4989,-0.4959,-0.4947,-0.4948,-0.4925,-0.4935,-0.4936,-0.4937,-0.4938,-0.4982,-0.4931,-0.4931,-0.493,-0.493,0,-0.5244,-0.5241,-0.5196,-0.5191,-0.5186,-0.5151,-0.5148,-0.5127,-0.5103,-0.5094,-0.5062,-0.5054,-0.5014,-0.5001,-0.4978,-0.497,-0.4965,-0.4952,-0.4946,-0.4955,-0.4957,-0.4949,-0.4947,-0.4931,-0.4931,-0.4931,-0.4931,0,-0.5293,-0.5262,-0.5251,-0.5213,-0.5204,-0.5202,-0.517,-0.5164,-0.5141,-0.5129,-0.5124,-0.5088,-0.5071,-0.5039,-0.5014,-0.4998,-0.4995,-0.4984,-0.5004,-0.5,-0.5012,-0.5012,-0.5054,-0.5058,-0.5003,-0.5004,-0.5004,0,-0.5315,-0.5312,-0.5274,-0.5265,-0.5249,-0.5236,-0.5224,-0.5189,-0.5178,-0.5148,-0.5146,-0.5127,-0.511,-0.5085,-0.5056,-0.5036,-0.5025,-0.5041,-0.5022,-0.5031,-0.5026,-0.5026,-0.5026,-0.5045,-0.5046,-0.5047,-0.5047,0,-0.5358,-0.5343,-0.5327,-0.5305,-0.5292,-0.5274,-0.5254,-0.5248,-0.5209,-0.5198,-0.5181,-0.5168,-0.5142,-0.5123,-0.5099,-0.5082,-0.5058,-0.5054,-0.5055,-0.5065,-0.5077,-0.5071,-0.5017,-0.5053,-0.5052,-0.5052,-0.5052,-0.5051,-0.5394,-0.5389,-0.5362,-0.5345,-0.5327,-0.5309,-0.5301,-0.5277,-0.5262,-0.5238,-0.5219,-0.5203,-0.5177,-0.5143,-0.5126,-0.5114,-0.5103,-0.5104,-0.5105,-0.5106,-0.511,-0.5078,-0.5109,-0.5109,-0.5109,-0.5109,-0.5108,0,-0.5435,-0.5416,-0.5401,-0.5374,-0.5361,-0.534,-0.5317,-0.5307,-0.5294,-0.5271,-0.5255,-0.5235,-0.5217,-0.5187,-0.5167,-0.5163,-0.5151,-0.5158,-0.5159,-0.5155,-0.5121,-0.5122,-0.5168,-0.5168,-0.5168,-0.5168,-0.5168,-0.5168,-0.5455,-0.5447,-0.5429,-0.5411,-0.5391,-0.5376,-0.5364,-0.5348,-0.533,-0.5309,-0.5294,-0.5275,-0.5249,-0.5227,-0.5209,-0.5201,-0.5195,-0.5206,-0.5194,-0.5163,-0.5157,-0.5152,-0.5153,-0.5204,-0.5204,-0.5229,-0.5229,-0.5229]},{"header":{"parameterUnit":"m.s-1","parameterCategory":1,"la1":30.2991,"la2":30.254,"lo1":-89.0895,"lo2":-89.0444,"dy":0.0017,"dx":0.0017,"nx":28,"ny":28,"refTime":"2025-12-24T03:00:00:Z","depth":0,"parameterNumber":3,"parameterNumberName":"V-component_of_WINDS"},"data":[0,0,0,0,0,0,0,0,0,0,0,0,0,0,0,0,0,0,0,0,0,0,0,0,0,0,0,0,0,0,0,0,0,0,0,0,0,0,0,0,0,0,0,0,0,0,0,0,0,0,0,0,0,0,0,0,0,0,0.0404,0.0404,0,0.0347,0.0346,0.0345,0.0337,0.0337,0.0338,0.0338,0.0277,0.0275,0.0273,0,0,0,0,0,0,0,0,0,0,0,0,0,0.0505,0.0503,0.0404,0.0404,0.0403,0.0347,0.0346,0.0345,0.0337,0.0337,0.0338,0.0339,0.0278,0.0275,0.0272,0,0,0,0,0,0,0,0,0,0,0,0,0,0.0456,0.0503,0.0404,0.0392,0.039,0.0347,0.0346,0.0345,0.0337,0.0337,0.0338,0.0339,0.0278,0.0275,0.0272,0.0236,0,0,0.0262,0.0261,0,0,0,0,0,0,0,0,0.0458,0.0452,0.0395,0.0393,0.0391,0.035,0.0359,0.0308,0.0336,0.0357,0.0338,0.0339,0.03,0.0295,0.0283,0.0233,0.0231,0.0262,0.026,0.0259,0.0258,0,0,0,0,0,0,0,0.0462,0.0454,0.0381,0.0394,0.0391,0.0389,0.0382,0.0349,0.0325,0.0355,0.0355,0.0348,0.0299,0.0286,0.0281,0.023,0.0262,0.0259,0.0257,0.0256,0.0147,0.0146,0,0,0,0,0,0,0.0468,0.0457,0.0383,0.038,0.0427,0.0386,0.0379,0.0362,0.0325,0.032,0.0347,0.0348,0.0291,0.0285,0.0279,0.0233,0.0259,0.0256,0.0254,0.0147,0.0146,0.0145,0,0,0,0,0,0,0.047,0.0461,0.0386,0.0418,0.0408,0.0383,0.0364,0.0361,0.0347,0.0319,0.0314,0.0338,0.0291,0.0283,0.0247,0.0231,0.0254,0.0251,0.0149,0.0147,0.0146,0.0142,0,0,0,0,0,0,0.0473,0.0462,0.0449,0.0418,0.0407,0.0355,0.0363,0.0359,0.0342,0.0342,0.0309,0.0304,0.0291,0.0252,0.0244,0.0227,0.0249,0.015,0.0148,0.0146,0.0144,0.0141,0.0138,0,0,0,0,0,0.0477,0.045,0.0448,0.0439,0.039,0.0354,0.0348,0.0334,0.0341,0.0326,0.0308,0.0306,0.0234,0.0248,0.0239,0.0221,0.0151,0.0149,0.0146,0.0145,0.0141,0.0138,0,0,0,0,0,0,0.0479,0.0446,0.0443,0.0406,0.0383,0.0353,0.0335,0.0331,0.0305,0.0306,0.0289,0.0281,0.0245,0.023,0.0245,0.0184,0.0193,0.0189,0.0195,0.0191,0.0189,0.0193,0.0246,0,0,0,0,0,0.0475,0.045,0.0422,0.0392,0.038,0.036,0.0344,0.0335,0.031,0.03,0.0279,0.0255,0.0227,0.0208,0.0181,0.0142,0.0134,0.0125,0.0123,0.0121,0.0117,0.0093,0.0088,0.0138,0.0138,0.0138,0,0,0.0467,0.0446,0.043,0.0392,0.0373,0.0346,0.0351,0.0323,0.0303,0.0295,0.0259,0.0243,0.0215,0.0176,0.0158,0.0162,0.0101,0.0118,0.0116,0.0113,0.009,0.0086,0.0082,0.0136,0.0137,0.0137,0,0,0.0438,0.042,0.0392,0.0373,0.0345,0.0331,0.0325,0.0295,0.0284,0.0248,0.0242,0.0217,0.0169,0.0149,0.0132,0.0095,0.0091,0.0087,0.0072,0.005,0.0046,0.0042,0.0028,0.0023,0.0083,0.0083,0.0083,0,0.043,0.0391,0.0378,0.035,0.0332,0.0326,0.0296,0.0279,0.0243,0.023,0.0235,0.0175,0.0155,0.0111,0.0102,0.0089,0.008,0.009,0.0048,0.0044,0.004,0.0026,0.0021,0.0083,0.0083,0.0083,0.0083,0,0.0383,0.0355,0.0336,0.0302,0.0282,0.0254,0.0236,0.0218,0.0211,0.0196,0.0159,0.0135,0.0102,0.0092,0.0084,0.0046,0.0049,0.0051,0.006,0.0035,0.0022,0.0016,0.0082,0.0082,0.0083,0.0083,0,0,0.0352,0.0312,0.0305,0.0289,0.0257,0.0235,0.0206,0.0175,0.0158,0.0134,0.0108,0.0068,0.007,0.0051,0.0041,0.0022,-0.0008,0.0026,0.0025,0.0019,-0.0054,-0.0056,-0.0062,-0.001,-0.0011,-0.0012,-0.0052,0,0.0318,0.0267,0.0254,0.021,0.0183,0.0177,0.0151,0.0128,0.0114,0.0089,0.0073,0.0044,0.005,0.0038,0.0018,-0.0,-0.0023,0.0003,-0.0036,-0.0037,-0.003,-0.0069,-0.0072,-0.0109,-0.0057,-0.0058,-0.0059,0,0.0271,0.0246,0.0199,0.017,0.0159,0.0136,0.0106,0.0082,0.0056,0.0047,0.0026,0.0018,-0.0013,-0.0002,-0.0046,-0.0029,-0.0045,-0.0056,-0.0058,-0.0064,-0.0051,-0.0078,-0.012,-0.0127,-0.0067,-0.0066,-0.0066,0,0.0252,0.0206,0.0172,0.0159,0.0125,0.0108,0.0093,0.0068,0.005,0.0023,0.0011,-0.0019,-0.0036,-0.0059,-0.0075,-0.0065,-0.0119,-0.0108,-0.0129,-0.0129,-0.0142,-0.0141,-0.019,-0.0149,-0.0149,-0.0149,-0.0149,0,0.0214,0.0185,0.0163,0.0141,0.0108,0.0094,0.0062,0.0046,0.0024,-0.0002,-0.0009,-0.0033,-0.0051,-0.0078,-0.009,-0.0126,-0.0134,-0.0143,-0.0146,-0.0143,-0.0142,-0.0156,-0.0154,-0.0151,-0.015,-0.015,-0.015,0,0.0186,0.017,0.0132,0.0103,0.0095,0.0072,0.0046,0.0025,0.0011,-0.0021,-0.003,-0.0052,-0.0084,-0.0102,-0.0142,-0.015,-0.0191,-0.0192,-0.0182,-0.0184,-0.0205,-0.0203,-0.0265,-0.0274,-0.0226,-0.0226,-0.0227,0,0.0162,0.014,0.0108,0.0091,0.0076,0.0049,0.003,0.0015,-0.0004,-0.0036,-0.0054,-0.0086,-0.0112,-0.0163,-0.0184,-0.0215,-0.0218,-0.0237,-0.0223,-0.0219,-0.022,-0.0219,-0.0223,-0.024,-0.0241,-0.0241,-0.0241,0,0.0121,0.0114,0.0088,0.0059,0.0037,0.0013,-0.001,-0.0024,-0.0043,-0.0065,-0.0097,-0.0117,-0.0158,-0.019,-0.0223,-0.0239,-0.0245,-0.0245,-0.0252,-0.0251,-0.0245,-0.025,-0.0191,-0.0245,-0.0244,-0.0244,-0.0244,-0.0244,0.0093,0.0072,0.0047,0.0018,-0.0001,-0.0023,-0.0045,-0.0062,-0.0089,-0.0123,-0.013,-0.0164,-0.0191,-0.0235,-0.0253,-0.0281,-0.0277,-0.0287,-0.0289,-0.0292,-0.0294,-0.0238,-0.0286,-0.0286,-0.0286,-0.0286,-0.0286,0,0.005,0.0033,0.0007,-0.0026,-0.0049,-0.005,-0.0076,-0.0096,-0.0126,-0.015,-0.0176,-0.0214,-0.0245,-0.0268,-0.03,-0.0318,-0.0322,-0.0327,-0.0327,-0.0331,-0.0294,-0.0286,-0.0324,-0.0324,-0.0324,-0.0324,-0.0324,-0.0324,0.0025,-0.0011,-0.0021,-0.0066,-0.0083,-0.0116,-0.0131,-0.0152,-0.0172,-0.0213,-0.0239,-0.0253,-0.0277,-0.0312,-0.0341,-0.0347,-0.0359,-0.0365,-0.0371,-0.0337,-0.0333,-0.0329,-0.0322,-0.0367,-0.0367,-0.0406,-0.0406,-0.0406]}]]